Home   Weather   Plauen   Past weeks

Flag for Germany Past Weather in Plauen, Saxony, Germany — Yesterday and Last 2 Weeks

Now
63 °F

Clear.


Feels Like: 63 °F
Forecast: 53 / 67 °F
Wind: 2 mph from North

Location: Karlovy Vary Airport

Current Time: Aug 18, 2017 at 3:36:40 am

Latest Report: Aug 18, 2017 at 3:00 am


Visibility: 10 mi

Pressure: 30.09 "Hg

Humidity: 88%

Dew Point: 59 °F

Location of PlauenLocation

Past Weather in Plauen — Graph

°F

Plauen Temperature Yesterday

Maximum temperature yesterday: 77 °F (at 2:30 pm)
Minimum temperature yesterday: 52 °F (at 5:00 am)
Average temperature yesterday: 67 °F

High & Low Weather Summary for the Past Weeks

 TemperatureHumidityPressure
High81 °F (Aug 8, 6:30 pm)100% (Aug 3, 5:00 am)30.24 "Hg (Aug 3, 5:00 am)
Low46 °F (Aug 7, 5:00 am)33% (Aug 7, 3:30 pm)29.89 "Hg (Aug 8, 3:30 pm)
Average64 °F73%30.08 "Hg
* Reported Aug 3 2:00 am — Aug 18 2:00 am, Plauen. Weather by CustomWeather, © 2017

Note: Actual official high and low records may vary slightly from our data, if they occured in-between our weather recording intervals... More about our weather records

Advertising

Plauen Weather History for the Previous 24 Hours

Scroll right to see more
 ConditionsComfort  
Time TempWeatherWind HumidityBarometerVisibility
2:00 am
Fri, Aug 18
63 °FClear.3 mph88%30.09 "Hg10 mi
1:00 am63 °FClear.2 mph88%30.12 "Hg10 mi
12:00 am63 °FClear.2 mph94%30.09 "Hg10 mi
11:00 pm
Thu, Aug 17
64 °FPassing clouds.No wind88%30.09 "HgN/A
10:00 pm63 °FPassing clouds.3 mph88%30.09 "HgN/A
9:00 pm66 °FClear.1 mph78%30.09 "Hg10 mi
8:30 pm70 °FClear.2 mph69%30.09 "Hg10 mi
8:00 pm72 °FPassing clouds.2 mph69%30.09 "HgN/A
7:30 pm73 °FPassing clouds.2 mph61%30.09 "HgN/A
7:00 pm75 °FPassing clouds.5 mph57%30.09 "HgN/A
6:30 pm75 °FPassing clouds.3 mph57%30.09 "HgN/A
6:00 pm75 °FPassing clouds.6 mph57%30.09 "HgN/A
5:30 pm75 °FPassing clouds.2 mph57%30.09 "HgN/A
5:00 pm75 °FPassing clouds.3 mph57%30.09 "HgN/A
4:30 pm75 °FPassing clouds.6 mph54%30.09 "HgN/A
4:00 pm75 °FPassing clouds.7 mph54%30.09 "HgN/A
3:30 pm75 °FScattered clouds.7 mph57%30.09 "HgN/A
3:00 pm75 °FScattered clouds.8 mph54%30.09 "HgN/A
2:30 pm77 °FScattered clouds.7 mph51%30.12 "HgN/A
2:00 pm75 °FPassing clouds.9 mph50%30.12 "HgN/A
1:30 pm73 °FPassing clouds.5 mph53%30.12 "HgN/A
1:00 pm73 °FPassing clouds.6 mph53%30.12 "HgN/A
12:30 pm73 °FPassing clouds.7 mph53%30.15 "HgN/A
12:00 pm72 °FPassing clouds.8 mph61%30.15 "HgN/A
11:30 am68 °FPassing clouds.7 mph69%30.15 "HgN/A
11:00 am66 °FPassing clouds.5 mph73%30.18 "HgN/A
10:30 am64 °FSunny.6 mph78%30.18 "Hg10 mi
10:00 am64 °FSunny.7 mph78%30.18 "Hg10 mi
9:30 am63 °FSunny.8 mph77%30.18 "Hg10 mi
9:00 am63 °FSunny.6 mph77%30.18 "Hg10 mi
8:30 am61 °FSunny.5 mph83%30.18 "Hg10 mi
8:00 am61 °FSunny.2 mph83%30.18 "Hg10 mi
7:30 am59 °FSunny.1 mph82%30.18 "Hg10 mi
7:00 am54 °FSunny.3 mph100%30.18 "Hg10 mi
6:00 am54 °FLight fog.2 mph94%30.18 "HgN/A
5:00 am52 °FLight fog.2 mph100%30.18 "HgN/A
4:00 am54 °FLight fog.2 mph94%30.18 "HgN/A
3:00 am55 °FClear.2 mph94%30.18 "Hg10 mi
Weather by CustomWeather, © 2017

See weather overviewHow to use our weather pages